Regional Weather Roundup
Issued by NWS

Home | Current Version | Previous Version | Graphics & Text | Print | Product List | Glossary On
Versions: 1 2 3 4 5 6 7 8 9 10 11 12 13 14 15 16 17 18 19 20 21 22 23 24 25 26 27 28 29 30 31 32 33 34 35 36 37 38 39 40 41 42 43 44 45 46 47 48 49 50
000
ASUS45 KSLC 041410
RWRUT

UTAH REGIONAL WEATHER ROUNDUP
NATIONAL WEATHER SERVICE SALT LAKE CITY UT
800 AM MDT SAT JUL 04 2015

UTZ001>011-023>025-041500-

NORTHERN UTAH

CITY           SKY/WX    TMP DP  RH WIND       PRES   REMARKS
BRIGHAM CITY   SUNNY     74  55  50 CALM      29.95R
HILL AFB       CLOUDY    75  48  38 E16       29.98S
LOGAN          SUNNY     72  54  53 CALM      29.97R
OGDEN          MOSUNNY   78  48  34 S6        29.95S
PROVO AIRPORT  NOT AVBL
SALT LAKE CITY PTSUNNY   82  51  34 S9        29.93R
VERNAL         PTSUNNY   71  48  43 CALM      30.08R
WENDOVER       MOSUNNY   84  45  24 NW9       29.95S
HEBER CITY     CLOUDY    63  50  63 E3        30.09R
WEST JORDAN    SUNNY     75  48  38 CALM      29.97R

$$

UTZ012>022-026-027-041500-

SOUTHERN/CENTRAL UTAH

CITY           SKY/WX    TMP DP  RH WIND       PRES   REMARKS
BLANDING       PTSUNNY   70  53  54 S7        30.23S
BRYCE CANYON   PTSUNNY   62  52  69 CALM      30.27S
CEDAR CITY     CLOUDY    76  50  40 SW7       30.10R
DELTA          PTSUNNY   80  44  28 S15       29.99S
HANKSVILLE     PTSUNNY   81  52  36 E6        30.03S
MILFORD        CLOUDY    79  49  34 S17       30.02S
MOAB/CYNLANDS  SUNNY     77  53  43 NE7       30.03F
PRICE          SUNNY     76  49  38 SE10      30.14R
ST GEORGE      CLOUDY    84  54  34 SE7       29.92S
KANAB          PTSUNNY   73  61  64 N5        30.13S

$$

REGIONAL REPORTS     COLORADO/ARIZONA

CITY           SKY/WX    TMP DP  RH WIND       PRES   REMARKS
CRAIG, CO      MOSUNNY   64  47  53 CALM      30.16R
GRAND JUNCTION PTSUNNY   77  51  40 SE13      30.09R
RIFLE          MOSUNNY   66  53  63 CALM      30.16R
MONTROSE       CLOUDY    69  52  54 S18       30.20S
CORTEZ         SUNNY     65  51  60 CALM      30.19F
PAGE, AZ       CLOUDY    79  56  45 S5        30.02S
GRAND CANYON   CLOUDY    63  56  78 SE6       30.22R
KINGMAN        CLOUDY    82  52  35 SW7       29.98R
FLAGSTAFF      CLOUDY    58  58 100 E5        30.25R

$$

REGIONAL REPORTS    NEVADA/IDAHO/WYOMING

CITY           SKY/WX    TMP DP  RH WIND       PRES   REMARKS
LAS VEGAS, NV  LGT RAIN  94  40  15 SW10      29.80R HX  90
ELY            CLOUDY    61  50  67 S9        30.13R
ELKO           MOSUNNY   67  48  50 CALM      30.05S
POCATELLO, ID  SUNNY     74  48  39 SW10      29.98R
BURLEY         PTSUNNY   71  54  54 CALM      29.94R
EVANSTON, WY   PTSUNNY   65  44  46 SW9       30.19R
ROCK SPRINGS   SUNNY     70  44  39 CALM      30.14R
KEMMERER       MOSUNNY   68  45  42 N3        30.20R

$$



USA.gov is the U.S. government's official web portal to all federal, state and local government web resources and services.